Harrison, AR

4:19 AM CDT on June 24, 2017 (GMT -0500)
Boone County

Weather History for KHRO - December, 2011

Change the Weather History Date:

Monday, December 19, 2011

  Actual Average Record
Temperature  
Mean Temperature 51 °F 37 °F  
Max Temperature 59 °F 47 °F 77 °F (1941)
Min Temperature 43 °F 27 °F 0 °F (1945)
Degree Days  
Heating Degree Days 14 28  
Month to date heating degree days 457 490  
Since 1 July heating degree days 1153 1254  
Cooling Degree Days 0 0  
Month to date cooling degree days 0 0  
Year to date cooling degree days 1863 1416  
Moisture  
Dew Point 36 °F    
Average Humidity 59    
Maximum Humidity 89    
Minimum Humidity 28    
Precipitation  
Precipitation 0.61 in 0.09 in 1.35 in (1987)
Month to date precipitation 3.05 2.05  
Year to date precipitation 51.32 42.99  
Snow  
Snow 0.00 in 0.10 in 2.40 in (1973)
Month to date snowfall 0.9 0.1  
Since 1 July snowfall 0.9 0.6  
Snow Depth 0.00 in    
Sea Level Pressure  
Sea Level Pressure 30.00 in    
Wind  
Wind Speed 8 mph (ESE)    
Max Wind Speed 15 mph    
Max Gust Speed 20 mph    
Visibility 9 miles    
Events Rain    
T = Trace of Precipitation, MM = Missing Value Source: NWS Daily Summary

Daily Weather History Graph

Daily Weather History Graph

Search for Another Location

Airport or City:

Trip Planner

Search our weather history database for the weather conditions in past years. The results will help you decide how hot, cold, wet, or windy it might be!

Date:

Astronomy

Dec. 19, 2011 Rise Set
Actual Time 7:18 AM CST 5:00 PM CST
Civil Twilight 6:50 AM CST 5:29 PM CST
Nautical Twilight 6:17 AM CST 6:01 PM CST
Astronomical Twilight 5:46 AM CST 6:32 PM CST
Moon 1:36 AM CST (12/19) 12:53 PM CST (12/19)
Length of Visible Light 10h 38m
Length of Day
9h 41m
Waning Crescent, 31% of the Moon is Illuminated
Dec 19
Waning Crescent
Dec 24
New
Jan 1
First Quarter
Jan 9
Full
Jan 16
Last Quarter

Hourly Weather History & Observations

Time (CST) Temp. Windchill Dew Point Humidity Pressure Visibility Wind Dir Wind Speed Gust Speed Precip Events Conditions
12:53 AM 45.0 °F 41.2 °F 34.0 °F 65% 30.06 in 10.0 mi SE 6.9 mph - N/A   Clear
1:53 AM 44.1 °F 40.1 °F 34.0 °F 68% 30.05 in 10.0 mi East 6.9 mph - N/A   Scattered Clouds
2:53 AM 44.6 °F 40.7 °F 35.6 °F 71% 30.06 in 10.0 mi East 6.9 mph - N/A   Overcast
3:53 AM 46.0 °F 43.1 °F 35.1 °F 66% 30.06 in 10.0 mi East 5.8 mph - N/A   Overcast
4:53 AM 46.9 °F - 36.0 °F 66% 30.04 in 10.0 mi ESE 6.9 mph - N/A   Overcast
5:53 AM 46.4 °F 42.9 °F 35.6 °F 66% 30.05 in 10.0 mi SE 6.9 mph - N/A   Overcast
6:53 AM 48.0 °F - 36.0 °F 63% 30.06 in 10.0 mi ESE 6.9 mph - N/A   Overcast
7:53 AM 48.9 °F - 36.0 °F 61% 30.05 in 10.0 mi SE 9.2 mph - N/A   Overcast
8:53 AM 50.0 °F - 36.0 °F 59% 30.07 in 10.0 mi SE 8.1 mph - 0.00 in   Overcast
9:53 AM 50.0 °F - 36.0 °F 59% 30.07 in 10.0 mi ESE 8.1 mph - N/A   Overcast
10:53 AM 51.1 °F - 37.9 °F 61% 30.06 in 10.0 mi ESE 6.9 mph - N/A   Overcast
11:53 AM 53.6 °F - 35.6 °F 51% 30.03 in 10.0 mi ESE 6.9 mph - N/A   Overcast
12:53 PM 55.4 °F - 37.4 °F 51% 30.00 in 10.0 mi ESE 5.8 mph - N/A   Overcast
1:53 PM 59.0 °F - 35.1 °F 41% 29.96 in 10.0 mi SE 6.9 mph - N/A   Overcast
2:53 PM 59.0 °F - 26.1 °F 28% 29.95 in 10.0 mi SE 10.4 mph - N/A   Overcast
3:53 PM 57.0 °F - 27.0 °F 32% 29.95 in 10.0 mi ESE 4.6 mph - N/A   Overcast
4:53 PM 55.0 °F - 28.0 °F 35% 29.96 in 10.0 mi ESE 6.9 mph - N/A   Overcast
5:53 PM 53.1 °F - 30.0 °F 41% 29.95 in 10.0 mi ESE 10.4 mph - N/A   Overcast
6:53 PM 52.0 °F - 30.9 °F 45% 29.94 in 10.0 mi ESE 11.5 mph - N/A   Mostly Cloudy
7:53 PM 52.0 °F - 33.1 °F 49% 29.94 in 10.0 mi East 9.2 mph - N/A   Mostly Cloudy
8:53 PM 48.9 °F - 37.0 °F 64% 30.01 in 9.0 mi ESE 6.9 mph - 0.02 in Rain Light Rain
9:53 PM 45.0 °F 41.8 °F 41.0 °F 86% 29.97 in 6.0 mi East 5.8 mph - 0.17 in Rain Rain
10:53 PM 44.1 °F 38.1 °F 41.0 °F 89% 29.94 in 6.0 mi ESE 11.5 mph - 0.20 in Rain Rain
11:30 PM 44.6 °F 38.4 °F 42.8 °F 93% 29.92 in 3.0 mi ESE 12.7 mph - 0.07 in Rain Heavy Rain
11:32 PM 42.8 °F 36.2 °F 42.8 °F 100% 29.92 in 3.0 mi SE 12.7 mph - 0.09 in Rain Heavy Rain
11:53 PM 44.1 °F 40.1 °F 43.0 °F 96% 29.98 in 4.0 mi NNW 6.9 mph - 0.15 in Rain Heavy Rain